Change the Weather History Date:

Friday, March 15, 2013

  Actual Average Record
Temperature  
Mean Temperature 39 °F 42 °F  
Max Temperature 50 °F 51 °F 83 °F (1990)
Min Temperature 28 °F 32 °F 14 °F (1993)
Degree Days  
Heating Degree Days 26 23  
Month to date heating degree days 397 376  
Since 1 July heating degree days 3815 3967  
Cooling Degree Days 0 0  
Month to date cooling degree days 0 0  
Year to date cooling degree days 0 0  
Moisture  
Dew Point 17 °F    
Average Humidity 47    
Maximum Humidity 64    
Minimum Humidity 29    
Precipitation  
Precipitation 0.00 in 0.15 in 2.14 in (1912)
Month to date precipitation 1.74 1.96  
Year to date precipitation 9.20 8.05  
Snow  
Snow 0.00 in 0.10 in 0.20 in (1950)
Month to date snowfall 0.9 0.9  
Since 1 July snowfall 12.3 16.0  
Snow Depth 0.00 in    
Sea Level Pressure  
Sea Level Pressure 29.93 in    
Wind  
Wind Speed 10 mph (WSW)    
Max Wind Speed 23 mph    
Max Gust Speed 32 mph    
Visibility 10 miles    
Events      
T = Trace of Precipitation, MM = Missing Value Source: NWS Daily Summary

Daily Weather History Graph

Daily Weather History Graph

Search for Another Location

Airport or City:

Trip Planner

Search our weather history database for the weather conditions in past years. The results will help you decide how hot, cold, wet, or windy it might be!

Date:

Astronomy

Mar. 15, 2013 Rise Set
Actual Time 7:09 AM EDT 7:05 PM EDT
Civil Twilight 6:42 AM EDT 7:32 PM EDT
Nautical Twilight 6:11 AM EDT 8:03 PM EDT
Astronomical Twilight 5:39 AM EDT 8:35 PM EDT
Moon 8:59 AM EDT (3/15) 11:15 PM EDT (3/15)
Length of Visible Light 12h 49m
Length of Day
11h 56m
Waxing Crescent, 15% of the Moon is Illuminated
Mar 15
Waxing Crescent
Mar 19
First Quarter
Mar 27
Full
Apr 3
Last Quarter
Apr 10
New

Hourly Weather History & Observations

Time (EDT) Temp. Windchill Dew Point Humidity Pressure Visibility Wind Dir Wind Speed Gust Speed Precip Events Conditions
12:54 AM 33.1 °F 25.5 °F 12.9 °F 43% 30.03 in 10.0 mi West 9.2 mph - N/A   Clear
1:54 AM 32.0 °F 23.6 °F 12.0 °F 44% 30.03 in 10.0 mi WNW 10.4 mph - N/A   Clear
2:54 AM 30.9 °F 23.5 °F 10.9 °F 43% 30.03 in 10.0 mi West 8.1 mph - N/A   Clear
3:54 AM 28.9 °F 20.4 °F 12.9 °F 51% 30.04 in 10.0 mi West 9.2 mph - N/A   Clear
4:54 AM 30.0 °F 21.7 °F 12.0 °F 47% 30.03 in 10.0 mi West 9.2 mph - N/A   Clear
5:54 AM 28.0 °F 20.0 °F 12.0 °F 51% 30.05 in 10.0 mi WNW 8.1 mph - N/A   Clear
6:54 AM 28.0 °F 20.8 °F 12.0 °F 51% 30.05 in 10.0 mi West 6.9 mph - N/A   Clear
7:54 AM 28.9 °F 21.1 °F 12.0 °F 49% 30.06 in 10.0 mi WSW 8.1 mph - N/A   Clear
8:54 AM 32.0 °F 23.0 °F 12.0 °F 44% 30.06 in 10.0 mi West 11.5 mph - N/A   Clear
9:54 AM 35.1 °F 28.6 °F 12.0 °F 39% 30.04 in 10.0 mi West 8.1 mph - N/A   Clear
10:54 AM 37.9 °F 30.5 °F 15.1 °F 39% 30.01 in 10.0 mi WSW 11.5 mph - N/A   Partly Cloudy
11:54 AM 43.0 °F 36.4 °F 19.0 °F 38% 29.97 in 10.0 mi SW 12.7 mph - N/A   Partly Cloudy
12:54 PM 46.0 °F 40.2 °F 19.0 °F 34% 29.93 in 10.0 mi West 12.7 mph 23.0 mph N/A   Mostly Cloudy
1:54 PM 45.0 °F 37.9 °F 19.9 °F 37% 29.91 in 10.0 mi WSW 16.1 mph 21.9 mph N/A   Overcast
2:54 PM 46.9 °F - 19.0 °F 33% 29.87 in 10.0 mi WSW 15.0 mph 23.0 mph N/A   Overcast
3:54 PM 50.0 °F - 19.0 °F 29% 29.83 in 10.0 mi WSW 17.3 mph 31.1 mph N/A   Clear
4:54 PM 50.0 °F - 19.0 °F 29% 29.80 in 10.0 mi SW 18.4 mph 26.5 mph N/A   Clear
5:54 PM 50.0 °F - 19.0 °F 29% 29.79 in 10.0 mi WSW 13.8 mph 26.5 mph N/A   Clear
6:54 PM 46.9 °F - 21.0 °F 36% 29.78 in 10.0 mi SW 10.4 mph 19.6 mph N/A   Clear
7:54 PM 46.0 °F 40.6 °F 23.0 °F 40% 29.78 in 10.0 mi SW 11.5 mph - N/A   Clear
8:54 PM 45.0 °F 41.2 °F 23.0 °F 42% 29.80 in 10.0 mi SW 6.9 mph - N/A   Clear
9:54 PM 41.0 °F 38.0 °F 24.1 °F 51% 29.80 in 10.0 mi South 4.6 mph - N/A   Clear
10:54 PM 37.0 °F 31.6 °F 27.0 °F 67% 29.81 in 10.0 mi SSW 6.9 mph - N/A   Clear
11:54 PM 39.9 °F 35.8 °F 28.9 °F 65% 29.81 in 10.0 mi SW 5.8 mph - N/A   Clear